Погода в Агиа-Параскеви

Греция     39°57′14″N   23°36′30″E
темп.,
°C
ветер,
м/с
пор.,
м/с
влажн.,
%
обл.,
%
осадки,
мм/ч
давл.,
гПа
погр.,
м
19 апреля, пн
пн1900:00+12св01845 0.0 101453
03:00+12всв22872 0.4 101383
06:00+12св228490 0.1 1012117
09:00+13ссв118098 0.1 1013287
12:00+16зсз116711 0.1 1011731
15:00+17ююв446276 0.3 1009903
18:00+15юв33654 2.3 1008309
21:00+15зюз813559 2.4 1008454
20 апреля, вт
вт2000:00+12зсз57795 0.8 1009255
03:00+11зсз57751 0.8 1010271
06:00+10зсз57731 0.0 1011299
09:00+12зсз57640 0.0 1013491
12:00+14зсз67570 0.0 1015811
15:00+16зсз45490 0.0 1015678
18:00+16зюз33510 0.0 1014372
21:00+12юз237199 0.1 1016100
21 апреля, ср
ср2100:00+11ююв007825 0.4 101634
03:00+11всв228310 1.4 101758
06:00+11св22833 0.1 1017111
09:00+13ссв32783 0.4 1018370
12:00+15сз32650 0.1 1019688
15:00+17зсз11530 0.2 1019776
18:00+17ююз21540 0.0 1018473
21:00+13ю11745 0.0 101931
22 апреля, чт
чт2200:00+13юв11795 0.0 102028
03:00+12св117646 0.0 102030
06:00+12св11761 0.0 102022
09:00+15в116327 0.0 1021208
12:00+18юв33525 0.0 1022720
15:00+18ююв545488 0.0 1021818
18:00+17юв565791 0.0 1020386
21:00+14юв4579100 0.0 1020109
23 апреля, пт
пт2300:00+14вюв4579100 0.0 1019104
03:00+14всв3374100 0.0 101859
06:00+14с017278 0.0 101816
09:00+15ссз2268100 0.1 1018206
12:00+16с3361100 0.0 1019321
15:00+16в1159100 0.0 1018367
18:00+16вюв2264100 0.0 1017317
21:00+14в1174100 0.0 101616